Location: Stilling
(56.0622°N, 9.9882°E)
Time: 12:46:41
(UTC+00:00)

Lacrosse 5 - Pass Details

Date: 13 July 2020
Orbit: 717 x 720 km, 57.0° (Epoch: 04 August)

Event Time Altitude Azimuth Distance (km) Brightness Sun altitude
Exits shadow 22:31:32 13° 142° (SE) 2,004 3.6 -11.4°
Maximum altitude 22:32:50 14° 125° (SE) 1,934 3.7 -11.5°
Drops below altitude 10° 22:35:25 10° 94° (E) 2,205 4.2 -11.6°
Sets 22:38:52 0° 70° (ENE) 3,131 5.3 -11.7°
